[[{"header":{"parameterUnit":"m.s-1","parameterCategory":1,"la1":30.2991,"la2":30.254,"lo1":-89.0895,"lo2":-89.0444,"dy":0.0017,"dx":0.0017,"nx":28,"ny":28,"refTime":"2024-12-18T03:00:00:Z","depth":0,"parameterNumber":2,"parameterNumberName":"U-component_of_WINDS"},"data":[0,0,0,0,0,0,0,0,0,0,0,0,0,0,0,0,0,0,0,0,0,0,0,0,0,0,0,0,0,0,0,0,0,0,0,0,0,0,0,0,0,0,0,0,0,0,0,0,0,0,0,0,0,0,0,0,0,0,1.0214,1.0213,0,1.015,1.0149,1.0149,1.0102,1.0102,1.0102,1.0101,1.0035,1.0034,1.0032,0,0,0,0,0,0,0,0,0,0,0,0,0,1.0295,1.0294,1.0214,1.0213,1.0212,1.015,1.0149,1.0148,1.0103,1.0102,1.0102,1.0101,1.0036,1.0034,1.0032,0,0,0,0,0,0,0,0,0,0,0,0,0,1.0249,1.0294,1.0214,1.0182,1.0178,1.015,1.0149,1.0148,1.0103,1.0102,1.0102,1.0101,1.0036,1.0034,1.0032,1.0031,0,0,1.0026,1.0025,0,0,0,0,0,0,0,0,1.0251,1.0246,1.0187,1.0184,1.018,1.0134,1.0154,1.0109,1.0103,1.0131,1.0101,1.0101,1.0068,1.0064,1.0053,1.0027,1.0025,1.0025,1.0024,1.0023,1.0023,0,0,0,0,0,0,0,1.0255,1.0248,1.0188,1.0187,1.0182,1.017,1.0163,1.0145,1.0104,1.0129,1.0125,1.0118,1.0066,1.0055,1.0051,1.0024,1.0025,1.0024,1.0022,1.0021,0.9995,0.9995,0,0,0,0,0,0,1.0263,1.0251,1.019,1.0187,1.0215,1.017,1.0161,1.0149,1.0104,1.0096,1.0119,1.0117,1.0059,1.0053,1.0048,1.0044,1.0023,1.0021,1.002,0.9994,0.9995,0.9995,0,0,0,0,0,0,1.0265,1.0258,1.0193,1.0218,1.0209,1.0169,1.0155,1.0148,1.0137,1.0096,1.0089,1.0115,1.0058,1.0051,1.0036,1.0041,1.002,1.0018,0.9993,0.9994,0.9995,1.0036,0,0,0,0,0,0,1.0267,1.0259,1.0258,1.0218,1.0208,1.0182,1.0156,1.0147,1.0133,1.013,1.0091,1.0084,1.0057,1.0039,1.0034,1.0038,1.0017,0.9993,0.9994,0.9995,1.0034,1.0038,1.0041,0,0,0,0,0,1.027,1.0272,1.0258,1.0251,1.0206,1.0182,1.0176,1.0145,1.0134,1.0133,1.0107,1.0085,1.0042,1.0038,1.0031,1.0035,0.9992,0.9993,0.9995,1.0032,1.0037,1.0041,0,0,0,0,0,0,1.0312,1.0266,1.025,1.0239,1.0215,1.0174,1.0172,1.0152,1.013,1.0127,1.009,1.0082,1.007,1.0051,1.0048,1.0032,1.0014,1.0014,1.0045,1.0049,1.0053,1.0058,1.0015,0,0,0,0,0,1.032,1.0305,1.0265,1.0259,1.0248,1.0212,1.02,1.0179,1.0153,1.0142,1.0115,1.009,1.0071,1.0059,1.0039,1.0031,1.0022,1.003,1.0034,1.0037,1.0038,1.0033,1.0036,0.9999,0.9999,0.9999,0,0,1.0337,1.0309,1.0302,1.0267,1.0245,1.0231,1.0204,1.0189,1.0178,1.014,1.0124,1.0103,1.0073,1.0061,1.0054,1.0044,1.0046,1.0039,1.0042,1.004,1.0034,1.0038,1.0041,1.0,1.0,1.0,0,0,1.0359,1.0336,1.0329,1.0309,1.0277,1.0254,1.0252,1.0215,1.02,1.0183,1.0155,1.014,1.0108,1.0088,1.0073,1.0089,1.0068,1.0083,1.0103,1.0099,1.0102,1.0104,1.011,1.0113,1.0084,1.0084,1.0084,0,1.0383,1.0359,1.0327,1.0315,1.03,1.0266,1.0258,1.024,1.0204,1.0195,1.0184,1.0143,1.012,1.0104,1.0108,1.0097,1.0094,1.0087,1.0104,1.0106,1.0108,1.0113,1.0115,1.0086,1.0086,1.0085,1.0085,0,1.0391,1.0375,1.0373,1.034,1.0325,1.0315,1.0281,1.027,1.025,1.0228,1.0212,1.0183,1.0157,1.0151,1.0132,1.0132,1.0127,1.0111,1.0093,1.0114,1.0118,1.012,1.0089,1.0088,1.0087,1.0087,0,0,1.0437,1.0387,1.0387,1.0371,1.0335,1.0322,1.0311,1.0286,1.0277,1.0253,1.0243,1.0217,1.0202,1.0185,1.0163,1.0159,1.0174,1.0143,1.0142,1.015,1.0174,1.0187,1.019,1.016,1.016,1.016,1.0176,0,1.0454,1.0432,1.0403,1.0391,1.0376,1.0344,1.0334,1.0311,1.029,1.0274,1.025,1.0233,1.0214,1.0204,1.0199,1.0173,1.0178,1.0172,1.015,1.015,1.0159,1.0192,1.0205,1.0222,1.0178,1.0178,1.0178,0,1.0471,1.0449,1.0436,1.0401,1.0394,1.0386,1.0361,1.0347,1.0319,1.0304,1.0287,1.0263,1.0249,1.0233,1.0214,1.021,1.02,1.0186,1.0186,1.0183,1.0166,1.019,1.0226,1.0229,1.0181,1.018,1.018,0,1.0507,1.0475,1.0463,1.0451,1.041,1.0405,1.0387,1.036,1.0347,1.0325,1.0316,1.0293,1.0281,1.0263,1.0234,1.0225,1.0218,1.0199,1.0206,1.0207,1.0206,1.0207,1.0241,1.0199,1.0199,1.0199,1.0199,0,1.0529,1.0522,1.0479,1.0471,1.0463,1.043,1.0422,1.0402,1.0378,1.0366,1.0336,1.0326,1.0287,1.0272,1.0249,1.0238,1.0232,1.022,1.0214,1.0222,1.0224,1.0215,1.0214,1.0199,1.0199,1.0199,1.0199,0,1.0568,1.0538,1.0523,1.0486,1.0477,1.0472,1.044,1.0432,1.0409,1.0395,1.0389,1.0354,1.0335,1.0304,1.0276,1.026,1.0253,1.0242,1.0262,1.0259,1.0267,1.0267,1.0298,1.03,1.0256,1.0256,1.0257,0,1.0584,1.0578,1.0541,1.0531,1.0515,1.0499,1.0486,1.0454,1.0441,1.041,1.0406,1.0385,1.0366,1.0337,1.0309,1.0287,1.0277,1.0289,1.0273,1.0283,1.0277,1.0278,1.0278,1.0293,1.0293,1.0294,1.0294,0,1.0617,1.0603,1.0585,1.0563,1.0548,1.0529,1.0508,1.0502,1.0464,1.0452,1.0433,1.0418,1.039,1.0369,1.0344,1.0326,1.0304,1.0299,1.03,1.0309,1.0321,1.0315,1.0273,1.0299,1.0298,1.0298,1.0298,1.0298,1.0645,1.0639,1.0612,1.0593,1.0574,1.0556,1.0546,1.0523,1.0506,1.0481,1.0463,1.0445,1.0418,1.0382,1.0365,1.035,1.0341,1.0341,1.0341,1.0342,1.0346,1.0323,1.0345,1.0345,1.0345,1.0345,1.0345,0,1.0677,1.0658,1.0641,1.0613,1.0599,1.058,1.0556,1.0546,1.053,1.0508,1.049,1.0468,1.0448,1.0419,1.0396,1.039,1.038,1.0386,1.0386,1.0383,1.0355,1.0357,1.0395,1.0395,1.0395,1.0395,1.0395,1.0395,1.0691,1.068,1.0663,1.0642,1.0622,1.0605,1.0593,1.0576,1.0558,1.0535,1.0518,1.0499,1.0473,1.0449,1.043,1.0422,1.0416,1.0425,1.0414,1.0389,1.0384,1.038,1.0382,1.0423,1.0424,1.0442,1.0442,1.0442]},{"header":{"parameterUnit":"m.s-1","parameterCategory":1,"la1":30.2991,"la2":30.254,"lo1":-89.0895,"lo2":-89.0444,"dy":0.0017,"dx":0.0017,"nx":28,"ny":28,"refTime":"2024-12-18T03:00:00:Z","depth":0,"parameterNumber":3,"parameterNumberName":"V-component_of_WINDS"},"data":[0,0,0,0,0,0,0,0,0,0,0,0,0,0,0,0,0,0,0,0,0,0,0,0,0,0,0,0,0,0,0,0,0,0,0,0,0,0,0,0,0,0,0,0,0,0,0,0,0,0,0,0,0,0,0,0,0,0,-2.9692,-2.9693,0,-2.9806,-2.9808,-2.9809,-2.9868,-2.9868,-2.9868,-2.9868,-2.9983,-2.9986,-2.9989,0,0,0,0,0,0,0,0,0,0,0,0,0,-2.9524,-2.9527,-2.9691,-2.9693,-2.9694,-2.9806,-2.9808,-2.9809,-2.9868,-2.9868,-2.9868,-2.9868,-2.9982,-2.9986,-2.999,0,0,0,0,0,0,0,0,0,0,0,0,0,-2.9613,-2.9528,-2.9691,-2.9737,-2.9742,-2.9806,-2.9808,-2.981,-2.9868,-2.9868,-2.9868,-2.9868,-2.9981,-2.9986,-2.999,-3.0016,0,0,-3.0004,-3.0006,0,0,0,0,0,0,0,0,-2.9608,-2.9619,-2.9729,-2.9734,-2.974,-2.9823,-2.9791,-2.9879,-2.9868,-2.982,-2.9868,-2.9868,-2.993,-2.9938,-2.996,-3.0021,-3.0026,-3.0004,-3.0007,-3.0009,-3.001,0,0,0,0,0,0,0,-2.9602,-2.9615,-2.9737,-2.973,-2.9737,-2.9752,-2.9765,-2.9808,-2.9873,-2.9824,-2.9829,-2.9842,-2.9933,-2.9955,-2.9963,-3.0028,-3.0004,-3.0008,-3.0011,-3.0013,-3.0121,-3.0121,0,0,0,0,0,0,-2.9588,-2.9609,-2.9733,-2.974,-2.9673,-2.9755,-2.9769,-2.9796,-2.9873,-2.9884,-2.9841,-2.9844,-2.9947,-2.9958,-2.9967,-3.0005,-3.0009,-3.0013,-3.0016,-3.0121,-3.0121,-3.0121,0,0,0,0,0,0,-2.9585,-2.9599,-2.9729,-2.9676,-2.9694,-2.9758,-2.9787,-2.9798,-2.9821,-2.9886,-2.9897,-2.9852,-2.9948,-2.9961,-3.0004,-3.001,-3.0015,-3.0019,-3.012,-3.0121,-3.0121,-3.0079,0,0,0,0,0,0,-2.958,-2.9597,-2.9607,-2.9676,-2.9696,-2.9763,-2.9788,-2.98,-2.9829,-2.9833,-2.9899,-2.991,-2.9949,-2.9997,-3.0009,-3.0016,-3.0023,-3.012,-3.0121,-3.0121,-3.008,-3.0078,-3.0076,0,0,0,0,0,-2.9573,-2.959,-2.9607,-2.9622,-2.971,-2.9764,-2.9775,-2.982,-2.9829,-2.984,-2.9882,-2.9908,-3.0007,-3.0001,-3.0015,-3.0023,-3.012,-3.012,-3.0121,-3.0081,-3.0079,-3.0076,0,0,0,0,0,0,-2.9518,-2.9599,-2.962,-2.9659,-2.9704,-2.9773,-2.9789,-2.9815,-2.9858,-2.986,-2.9914,-2.9929,-2.9968,-3.0,-2.9992,-3.0055,-3.0066,-3.0069,-3.0032,-3.003,-3.0027,-3.0019,-3.0027,0,0,0,0,0,-2.9511,-2.9548,-2.9617,-2.9644,-2.9666,-2.9724,-2.9748,-2.978,-2.9828,-2.9847,-2.9892,-2.9938,-2.9981,-3.0007,-3.0049,-3.0086,-3.0102,-3.0098,-3.0096,-3.0094,-3.0096,-3.0121,-3.0121,-3.0122,-3.0122,-3.0122,0,0,-2.9496,-2.9545,-2.9564,-2.9635,-2.9673,-2.9711,-2.9739,-2.9776,-2.9805,-2.9853,-2.9898,-2.9932,-2.9988,-3.0029,-3.0049,-3.0057,-3.01,-3.0094,-3.0092,-3.0096,-3.0121,-3.0121,-3.0121,-3.0122,-3.0122,-3.0122,0,0,-2.9488,-2.9527,-2.9557,-2.9596,-2.9655,-2.9693,-2.97,-2.9766,-2.9792,-2.9838,-2.9875,-2.991,-2.998,-3.0019,-3.0048,-3.0058,-3.0084,-3.007,-3.0059,-3.0082,-3.0082,-3.0082,-3.0088,-3.0089,-3.0072,-3.0072,-3.0072,0,-2.9461,-2.9519,-2.9568,-2.9605,-2.9635,-2.9682,-2.9713,-2.9748,-2.9817,-2.9838,-2.9845,-2.9937,-2.9977,-3.003,-3.0033,-3.0054,-3.0065,-3.0063,-3.0078,-3.0079,-3.008,-3.0086,-3.0087,-3.007,-3.007,-3.0071,-3.0071,0,-2.9484,-2.9524,-2.9541,-2.9608,-2.9641,-2.9674,-2.9729,-2.9757,-2.9786,-2.9824,-2.9871,-2.9922,-2.9976,-2.9991,-3.0018,-3.0048,-3.0051,-3.0068,-3.0081,-3.0077,-3.0084,-3.0086,-3.0067,-3.0068,-3.0069,-3.0069,0,0,-2.9442,-2.954,-2.9545,-2.9578,-2.9647,-2.9679,-2.9716,-2.977,-2.9794,-2.984,-2.9873,-2.9934,-2.9951,-2.9983,-3.0016,-3.0037,-3.0045,-3.0052,-3.0054,-3.005,-3.0083,-3.0071,-3.0072,-3.0063,-3.0063,-3.0064,-3.0079,0,-2.9445,-2.9513,-2.956,-2.961,-2.9649,-2.9695,-2.9727,-2.9774,-2.9811,-2.985,-2.9891,-2.9934,-2.9952,-2.9973,-2.9995,-3.0039,-3.0052,-3.0038,-3.0095,-3.0096,-3.008,-3.0075,-3.0062,-3.0073,-3.0081,-3.0082,-3.0082,0,-2.9456,-2.9504,-2.9558,-2.9627,-2.9645,-2.9673,-2.9729,-2.9765,-2.982,-2.9846,-2.9884,-2.9919,-2.996,-2.997,-3.0029,-3.0019,-3.0045,-3.0071,-3.0072,-3.008,-3.0089,-3.0084,-3.0078,-3.008,-3.0086,-3.0086,-3.0086,0,-2.9423,-2.95,-2.9544,-2.957,-2.9651,-2.967,-2.9705,-2.976,-2.9791,-2.9839,-2.986,-2.9912,-2.9941,-2.9981,-3.0029,-3.0032,-3.0085,-3.0098,-3.0108,-3.0107,-3.0117,-3.0116,-3.0116,-3.0132,-3.0132,-3.0132,-3.0132,0,-2.9421,-2.9453,-2.953,-2.9557,-2.9595,-2.9649,-2.9685,-2.9723,-2.9773,-2.9808,-2.9851,-2.9884,-2.9945,-2.9986,-3.0024,-3.0069,-3.0081,-3.0103,-3.0113,-3.01,-3.0097,-3.0118,-3.0119,-3.0132,-3.0132,-3.0132,-3.0132,0,-2.9389,-2.9442,-2.9493,-2.9567,-2.9586,-2.9611,-2.9674,-2.9703,-2.9743,-2.9788,-2.9802,-2.9865,-2.9916,-2.9968,-3.0035,-3.0061,-3.0105,-3.0118,-3.0087,-3.0092,-3.0101,-3.01,-3.0115,-3.0121,-3.0131,-3.0131,-3.0131,0,-2.9385,-2.9411,-2.9489,-2.9516,-2.955,-2.9594,-2.9626,-2.9682,-2.9714,-2.9781,-2.9801,-2.9855,-2.9901,-2.9979,-3.0032,-3.0084,-3.01,-3.0102,-3.0108,-3.0095,-3.0102,-3.01,-3.0104,-3.0099,-3.0099,-3.0099,-3.0098,0,-2.9372,-2.9398,-2.9444,-2.95,-2.9538,-2.9584,-2.9632,-2.9652,-2.9717,-2.9751,-2.9804,-2.984,-2.9911,-2.9964,-3.0024,-3.006,-3.0091,-3.0096,-3.0102,-3.0089,-3.0071,-3.0083,-3.0082,-3.0096,-3.0096,-3.0096,-3.0096,-3.0096,-2.9356,-2.9382,-2.9442,-2.9492,-2.9534,-2.9579,-2.961,-2.9656,-2.9701,-2.9764,-2.9794,-2.9847,-2.9904,-2.9988,-3.0024,-3.0067,-3.0076,-3.0083,-3.0085,-3.0086,-3.0084,-3.0063,-3.0078,-3.0078,-3.0078,-3.0078,-3.0078,0,-2.9347,-2.9388,-2.9434,-2.9501,-2.9541,-2.9568,-2.9623,-2.9655,-2.9702,-2.9753,-2.9798,-2.986,-2.9913,-2.9971,-3.0028,-3.0051,-3.0067,-3.0065,-3.0064,-3.0072,-3.0072,-3.0062,-3.0051,-3.0051,-3.0051,-3.0051,-3.0051,-3.0051,-2.9347,-2.9394,-2.9427,-2.9497,-2.9538,-2.9592,-2.9621,-2.9663,-2.9705,-2.9773,-2.9818,-2.9855,-2.991,-2.9972,-3.0022,-3.0038,-3.0057,-3.0051,-3.0071,-3.007,-3.0072,-3.0074,-3.0065,-3.0054,-3.0054,-3.0068,-3.0068,-3.0068]}]]